Regional Weather Roundup
Issued by NWS Wakefield, VA

Home | Current Version | Previous Version | Text Only | Print | Product List | Glossary On
Versions: 1 2 3 4 5 6 7 8 9 10 11 12 13 14 15 16 17 18 19 20 21 22 23 24 25 26 27 28 29 30 31 32 33 34 35 36 37 38 39 40 41 42 43 44 45 46 47 48 49 50
000
ASUS41 KAKQ 290610
RWRAKQ

REGIONAL WEATHER ROUNDUP
NATIONAL WEATHER SERVICE WAKEFIELD VA
100 AM EST SAT NOV 29 2014

Note: "fair" indicates few or no clouds below 12,000 feet with no
significant weather and/or obstructions to visibility. * = Denotes
station may not report precipitation (e.g., rain,snow,etc.),
thunder or fog.

VAZ042-051-052>054-056-290700-
NORTHERN VIRGINIA

CITY           SKY/WX    TMP DP  RH WIND       PRES   REMARKS
WASH NATIONAL  MOCLDY    35  19  52 CALM      30.32S
DULLES         CLOUDY    26  23  88 CALM      30.29F
FORT BELVOIR   CLOUDY    27  23  85 CALM      30.31F
QUANTICO       MOCLDY    29  22  75 NW5       30.32F
FREDERICKSBRG* MOCLDY    28  24  87 CALM      30.30F
STAFFORD*      MOCLDY    25  25 100 CALM      30.34F
WARRENTON      CLOUDY    28  28 100 CALM      30.28F
CULPEPER*      CLOUDY    27  25  93 CALM      30.29S
MANASSAS*      CLOUDY    27  25  93 CALM      30.30F
LEESBURG*      CLOUDY    30  28  93 CALM      30.29F
WINCHESTER     CLOUDY    30  19  64 CALM      30.25F
FRONT ROYAL*   CLOUDY    28  23  80 CALM      30.25S
LURAY*         MOCLDY    30  27  86 CALM      30.25S
$$

VAZ048-049-060>072-079>083-290700-
CENTRAL AND SOUTH CENTRAL VIRGINIA

CITY           SKY/WX    TMP DP  RH WIND       PRES   REMARKS
RICHMOND       PTCLDY    28  23  81 CALM      30.31R
CHESTERFIELD*  CLEAR     25  10  54 CALM      30.31R
PETERSBURG*    CLEAR     25  24  96 CALM      30.31R
HANOVER        PTCLDY    25  21  85 CALM      30.31S
TAPPAHANNOCK*  PTCLDY    26  22  87 CALM      30.32R
QUINTON*       CLEAR     26  24  92 CALM      30.31R
CHARLOTTSVILLE MOCLDY    28  20  71 N3        30.27S
GORDONSVILLE*  MOCLDY    27  23  86 CALM      30.28S
ORANGE*        CLOUDY    30  27  86 CALM      30.30S
LOUISA*        MOCLDY    25  21  86 CALM      30.27S
BUMPASS*       MOCLDY    27  22  82 CALM      30.29S
FARMVILLE*     CLEAR     24  19  81 CALM      30.28S
CREWE*         CLEAR     25  23  93 CALM      30.28S
FORT PICKETT*  CLEAR     26  24  91 CALM      30.29R
CHASE CITY*    CLEAR     28  26  93 CALM      30.28F
CLARKSVILLE*   CLEAR     28  28 100 CALM      30.28S
SOUTH HILL*    CLEAR     26  25  94 CALM      30.34S
LAWRENCEVILLE* CLEAR     26  25  94 CALM      30.29R
$$

VAZ088>098-290700-
SOUTHEAST VIRGINIA

CITY           SKY/WX    TMP DP  RH WIND       PRES   REMARKS
NORFOLK        CLEAR     29  25  85 S3        30.29F
VIRGINIA BEACH CLEAR     29  24  82 CALM      30.29F
NORFOLK NAVAL  CLEAR     32  26  78 CALM      30.31F
WEST POINT*    CLEAR     28  25  87 CALM      30.33R
SALUDA*        FAIR      26  23  89 CALM      30.31R
NEWPORT NEWS   MIX PCPN  29  24  82 CALM      30.31S
LANGLEY AFB    CLEAR     28  27  93 SW2       30.31S
FORT EUSTIS    MOCLDY    29  28  96 NE2       30.29S
WILLIAMSBURG*  CLEAR     30  28  93 CALM      30.32R
HR EXEC AP*    CLEAR     23  19  86 CALM      30.32S
FRANKLIN*      CLEAR     27  25  93 CALM      30.31R
WAKEFIELD      CLEAR     26  22  84 CALM      30.31R
$$

VAZ020-022-025-037-045-290700-
WEST CENTRAL AND SOUTHWEST VIRGINIA

CITY           SKY/WX    TMP DP  RH WIND       PRES   REMARKS
STAUNTON*      MOCLDY    24  19  82 CALM      30.24F
WAYNESBORO*    MOCLDY    25  17  71 SW3       30.22F
HOT SPRINGS VA PTCLDY    29   1  30 SW12      30.07F WCI  19
LYNCHBURG      CLEAR     23  19  85 CALM      30.26F
DANVILLE       CLEAR     26  22  84 CALM      30.28S
SOUTH BOSTON*  CLEAR     25  23  93 CALM      30.28F
MARTINSVILLE   CLEAR     24  24  98 CALM      30.27S
ROANOKE        CLEAR     28  21  75 NE6       30.25F
BLACKSBURG     CLEAR     23  23 100 CALM      30.21S
DUBLIN*        CLEAR     24  22  91 SE3       30.19F
MARION*        CLEAR     21  19  89 CALM      30.19S
HILLSVILLE*    CLEAR     29  18  63 S6        30.15F
RICHLANDS*     CLEAR     35  15  45 S3        30.13S
WISE*          CLEAR     28  18  64 S7        30.14S
ABINGDON*      CLEAR     29  23  79 CALM      30.18S
$$

MDZ021>025-VAZ099-100-290700-
SOUTHERN MARYLAND AND THE DELMARVA PENINSULA

CITY           SKY/WX    TMP DP  RH WIND       PRES   REMARKS
PATUXENT RIVER FAIR      25  20  81 W5        30.32R
BAY BRIDGE APT   N/A     30  21  69 CALM      30.31S
LEONARDTOWN    CLEAR     27  21  80 CALM      30.32S
DOVER          CLEAR     26  19  76 CALM      30.29R
GEORGETOWN     CLEAR     25  19  78 CALM      30.31S
EASTON         CLEAR     28  24  84 CALM      30.35R
CAMBRIDGE      CLEAR     28  23  80 CALM      30.31S
SALISBURY      CLEAR     25  20  81 CALM      30.31S
OCEAN CITY     CLEAR     23  20  88 CALM      30.31S
WALLOPS ISLAND CLEAR     26  21  81 CALM      30.31F
ACCOMACK*      CLEAR     27  23  86 CALM      30.30S
$$

NCZ012>017-030>032-290700-
NORTH CENTRAL AND EASTERN NORTH CAROLINA

CITY           SKY/WX    TMP DP  RH WIND       PRES   REMARKS
ROANOKE RAPIDS CLEAR     27  27 100 CALM      30.31R
RALEIGH        PTCLDY    29  23  78 CALM      30.29F
ELIZABETH CITY CLEAR     33  27  78 CALM      30.30F
AHOSKIE*       CLEAR     26  25  94 CALM      30.32R
EDENTON*         N/A     28  26  89 CALM      30.31S
CURRITUCK*     CLEAR     30  28  93 CALM      30.31S
KILL DEVIL HLS CLEAR     36  23  59 CALM      30.29S
MANTEO         CLEAR     31  27  86 CALM      30.31S
CAPE HATTERAS  CLEAR     36  26  67 CALM      30.30F
TARBORO*       CLEAR     28  27  96 CALM      30.32S
GOLDSBORO      CLEAR     29  28  96 CALM      30.30S
WASHINGTON     CLEAR     28  26  92 CALM      30.32S
GREENVILLE       N/A     30  30 100 CALM      30.32S FOG
NEW BERN       CLEAR     30  26  85 CALM      30.34R
WILMINGTON     CLEAR     31  29  92 CALM      30.33R
$$

VAZ048-290700-
ELSEWHERE

CITY           SKY/WX    TMP DP  RH WIND       PRES   REMARKS
HARRISBURG PA  CLOUDY    27  18  69 CALM      30.28R
BALTIMORE      MOCLDY    27  21  78 CALM      30.30S
ANNAPOLIS      PTCLDY    30  25  81 CALM      30.31S
ANDREWS AFB    PTCLDY    27  22  84 CALM      30.29S
PHILADELPHIA   MOCLDY    28  17  63 W5        30.32R
WILDWOOD NJ*   CLEAR     25  18  74 CALM      30.30S
HENDERSON NC   CLEAR     28  25  89 CALM      30.28S
GREENSBORO     PTCLDY    31  23  72 S3        30.24F
ROCKY MOUNT    CLEAR     29  26  89 CALM      30.31S
$$

VAZ100-290700-
MARINE

STATION/POSITION TIME  TEMP    WIND        PRES    WAVE   SWELL
                       AIR SEA DIR/SP/G            HT/PER HT/PER
                 (UTC) (F)     (DEG/KT/KT) (MB)    (FT/S) (FT/S)
CAPE MAY NJ      0600   30 45   90/  2/  2 1025.8R
LEWES DE         0600   30 45  270/  5/  6 1026.2R
15NM E FENWICK I 0600   38 53              1025.6S   2/ 5
OCEAN-CITY-INLET 0600   33 47  340/  3/  3 1025.8S
WACHAPREAGUE VA  0600   30 44  350/  1/  2 1026.0R
THOMAS POINT MD  0600   35 45  350/  6/  7 1027.5R
GOOSES REEF MD   0600   36     340/  4/ 10 1026.8R
COVE POINT MD    0600   34     330/  4/  6 1026.3R
SOLOMONS ISLAND  0600      47                N/A
BISHOPS HEAD MD  0600   35 41  360/  4/  5 1025.7R
PINEY POINT MD   0600           20/  3/  4   N/A
POTOMAC MD       0600   38     360/  6/  6 1025.5R
CAMBRIDGE MD     0600   30 44  200/  1/  2 1026.2R
LEWISETTA VA     0600   33 45  280/  2/  3 1026.3R
RAPPAHANNOCK LGT 0600           80/  5/  6 1026.3S
STINGRAY PT      0600   39      CALM  /  2 1026.3R
YORK RVR RNG VA  0600   40      CALM  /  2 1025.5R
YORKTOWN VA      0600   34 49  230/  2/  2 1025.9R
JAMESTOWN VA     0600   32      60/  2/  2   N/A
DOMINION TERM VA 0600   40     210/  4/  5 1025.8R
KIPTOPEKE VA     0600      51   70/  6/  6   N/A
CHES BAY BRIDGE  0600   40 49  200/  6/  7 1025.2F
CAPE HENRY VA    0600   37     220/  5/  6 1024.4F
CHESAPEAKE LGHT  0500   41     290/  4/  5 1026.7F
WILLOUBY STN VA  0600   39      30/  4/  5 1024.4S
S CRANEY ISL VA  0600          190/  2/  3 1025.7S
CAPE HENRY BUOY  0500      54                N/A     2/ 6
1ST LANDING BUOY 0600   41     210/  6/  8 1025.3F
CAPE CHARLES BUO 0600      53                N/A     2/ 5   2/ 5
64NM E OF VA BCH 0600   44 62  340/  8/ 12 1025.4F   3/ 7   3/ 7
DUCK PIER NC     0600   40 52  310/  3/  4 1025.1S
44100 DUCK FRF   0600      56                N/A     3/ 6   2/11
44056 DUCK FRF   0600      53                N/A     3/ 7   2/11
OREGON INLET NC  0600   38 51  330/  4/  4 1026.0F
HATTERAS NC      0600   43 52  360/  6/  8 1026.3S
DIAMOND SHLS NC  0600   43     330/  6/ 12 1026.2F   6/ 9   7/ 9
CAPE LOOKOUT NC  0500   42      10/  5/  5 1026.3F
$$



USA.gov is the U.S. government's official web portal to all federal, state and local government web resources and services.